When you browse on this site, cookies collect data to enhance your experience and personalize the content and advertising you see.
Visit our Privacy Policy to learn more. By continuing to use the site, you agree to this use of cookies and data.
  • In Austria
  • List of Countries
  • For 7 days
  • Water Temperature
  • Weather Map
  • News
  • Weather Widgets
  • user-avatar
    Login

    Hourly Weather Córdoba

    Today, 7 June, Sunday

    Time Temperature Precipitation Wind Pressure Humidity
    00:00 +11°C° 0 mm 1 mps 724 mmHg 51%
    01:00 +11°C° 0 mm 1 mps 724 mmHg 52%
    02:00 +10°C° 0 mm 1 mps 724 mmHg 53%
    03:00 +10°C° 0 mm 1 mps 724 mmHg 55%
    04:00 +10°C° 0 mm 1 mps 724 mmHg 57%
    05:00 +9°C° 0 mm 1 mps 724 mmHg 59%
    06:00 +10°C° 0 mm 1 mps 724 mmHg 58%
    07:00 +10°C° 0 mm 1 mps 725 mmHg 57%
    08:00 +11°C° 0 mm 1 mps 725 mmHg 56%
    09:00 +13°C° 0 mm 2 mps 726 mmHg 49%
    10:00 +16°C° 0 mm 3 mps 726 mmHg 43%
    11:00 +19°C° 0 mm 3 mps 726 mmHg 36%
    12:00 +20°C° 0 mm 4 mps 726 mmHg 35%
    13:00 +21°C° 0 mm 4 mps 725 mmHg 33%
    14:00 +22°C° 0 mm 5 mps 724 mmHg 32%
    15:00 +21°C° 0 mm 4 mps 724 mmHg 37%
    16:00 +20°C° 0 mm 4 mps 724 mmHg 41%
    17:00 +18°C° 0 mm 3 mps 724 mmHg 45%
    18:00 +17°C° 0 mm 3 mps 724 mmHg 50%
    19:00 +16°C° 0 mm 3 mps 724 mmHg 55%
    20:00 +13°C° 0 mm 3 mps 724 mmHg 60%
    21:00 +13°C° 0 mm 3 mps 724 mmHg 61%
    22:00 +13°C° 0 mm 3 mps 724 mmHg 63%
    23:00 +13°C° 0 mm 3 mps 724 mmHg 64%

    Tomorrow, 8 June, Monday

    Time Temperature Precipitation Wind Pressure Humidity
    00:00 +12°C° 0 mm 3 mps 724 mmHg 65%
    01:00 +12°C° 0 mm 3 mps 724 mmHg 66%
    02:00 +13°C° 0 mm 2 mps 724 mmHg 67%
    03:00 +13°C° 0 mm 2 mps 724 mmHg 70%
    04:00 +12°C° 0 mm 2 mps 724 mmHg 73%
    05:00 +12°C° 0 mm 1 mps 724 mmHg 75%
    06:00 +12°C° 0 mm 1 mps 724 mmHg 75%
    07:00 +12°C° 0 mm 1 mps 724 mmHg 75%
    08:00 +12°C° 0 mm 1 mps 724 mmHg 75%
    09:00 +15°C° 0 mm 1 mps 725 mmHg 66%
    10:00 +18°C° 0 mm 1 mps 725 mmHg 58%
    11:00 +20°C° 0 mm 2 mps 725 mmHg 50%
    12:00 +21°C° 0 mm 2 mps 725 mmHg 47%
    13:00 +23°C° 0 mm 2 mps 724 mmHg 45%
    14:00 +24°C° 0 mm 2 mps 723 mmHg 42%
    15:00 +23°C° 0 mm 2 mps 723 mmHg 47%
    16:00 +20°C° 0 mm 2 mps 723 mmHg 53%
    17:00 +19°C° 0 mm 2 mps 723 mmHg 58%
    18:00 +19°C° 0 mm 1 mps 723 mmHg 63%
    19:00 +18°C° 0 mm 1 mps 723 mmHg 69%
    20:00 +16°C° 0 mm 1 mps 723 mmHg 74%
    21:00 +14°C° 0 mm 0 mps 724 mmHg 76%
    22:00 +14°C° 0 mm 0 mps 724 mmHg 78%
    23:00 +13°C° 0 mm 0 mps 724 mmHg 80%

    Day after tomorrow, 9 June, Tuesday

    Time Temperature Precipitation Wind Pressure Humidity
    00:00 +13°C° 0 mm 0 mps 724 mmHg 80%
    01:00 +12°C° 0 mm 0 mps 724 mmHg 81%
    02:00 +12°C° 0 mm 0 mps 724 mmHg 81%
    03:00 +12°C° 0 mm 0 mps 723 mmHg 82%
    04:00 +12°C° 0 mm 0 mps 723 mmHg 83%
    05:00 +11°C° 0 mm 0 mps 723 mmHg 84%
    06:00 +11°C° 0 mm 0 mps 723 mmHg 83%
    07:00 +12°C° 0 mm 0 mps 723 mmHg 82%
    08:00 +13°C° 0 mm 1 mps 723 mmHg 81%
    09:00 +15°C° 0 mm 1 mps 724 mmHg 75%
    10:00 +16°C° 0 mm 1 mps 724 mmHg 69%
    11:00 +19°C° 0 mm 1 mps 724 mmHg 63%
    12:00 +20°C° 0 mm 1 mps 723 mmHg 60%
    13:00 +19°C° 0 mm 2 mps 723 mmHg 57%
    14:00 +20°C° 0 mm 2 mps 722 mmHg 54%
    15:00 +19°C° 0 mm 2 mps 722 mmHg 58%
    16:00 +18°C° 0 mm 2 mps 722 mmHg 62%
    17:00 +18°C° 0 mm 2 mps 721 mmHg 65%
    18:00 +16°C° 0 mm 2 mps 722 mmHg 73%
    19:00 +15°C° 0 mm 2 mps 722 mmHg 81%
    20:00 +14°C° 0 mm 2 mps 722 mmHg 88%
    21:00 +14°C° 0 mm 1 mps 722 mmHg 90%
    22:00 +14°C° 0 mm 1 mps 722 mmHg 92%
    23:00 +13°C° 0 mm 1 mps 723 mmHg 94%

    10 June, Wednesday

    Time Temperature Precipitation Wind Pressure Humidity
    00:00 +13°C° 0 mm 1 mps 723 mmHg 93%
    01:00 +14°C° 0 mm 1 mps 723 mmHg 92%
    02:00 +14°C° 0 mm 1 mps 722 mmHg 91%
    03:00 +13°C° 0 mm 1 mps 722 mmHg 90%
    04:00 +13°C° 0 mm 1 mps 722 mmHg 89%
    05:00 +13°C° 0 mm 1 mps 722 mmHg 89%
    06:00 +13°C° 0 mm 1 mps 722 mmHg 86%
    07:00 +12°C° 0 mm 0 mps 722 mmHg 84%
    08:00 +12°C° 0 mm 0 mps 723 mmHg 82%
    09:00 +15°C° 0 mm 1 mps 723 mmHg 75%
    10:00 +18°C° 0 mm 1 mps 723 mmHg 69%
    11:00 +19°C° 0 mm 1 mps 723 mmHg 62%
    12:00 +19°C° 0 mm 2 mps 723 mmHg 57%
    13:00 +20°C° 0 mm 3 mps 722 mmHg 52%
    14:00 +21°C° 0 mm 3 mps 722 mmHg 48%
    15:00 +20°C° 0 mm 3 mps 721 mmHg 52%
    16:00 +19°C° 0 mm 3 mps 721 mmHg 56%
    17:00 +18°C° 0 mm 3 mps 721 mmHg 60%
    18:00 +17°C° 0 mm 3 mps 721 mmHg 68%
    19:00 +16°C° 0 mm 3 mps 721 mmHg 75%
    20:00 +14°C° 0 mm 3 mps 721 mmHg 83%
    21:00 +13°C° 0 mm 3 mps 721 mmHg 84%
    22:00 +13°C° 0 mm 3 mps 721 mmHg 86%
    23:00 +13°C° 0 mm 3 mps 721 mmHg 87%

    11 June, Thursday

    Time Temperature Precipitation Wind Pressure Humidity
    00:00 +14°C° 0 mm 2 mps 720 mmHg 87%
    01:00 +14°C° 0 mm 2 mps 720 mmHg 87%
    02:00 +14°C° 0 mm 2 mps 719 mmHg 86%
    03:00 +14°C° 0 mm 2 mps 719 mmHg 86%
    04:00 +14°C° 0 mm 2 mps 718 mmHg 86%
    05:00 +14°C° 0 mm 1 mps 718 mmHg 86%
    06:00 +14°C° 0 mm 1 mps 718 mmHg 86%
    07:00 +14°C° 0 mm 1 mps 718 mmHg 86%
    08:00 +15°C° 0 mm 1 mps 718 mmHg 87%
    09:00 +16°C° 0 mm 2 mps 719 mmHg 79%
    10:00 +18°C° 0 mm 2 mps 719 mmHg 70%
    11:00 +20°C° 0 mm 3 mps 719 mmHg 62%
    12:00 +21°C° 0 mm 3 mps 718 mmHg 57%
    13:00 +22°C° 0 mm 3 mps 718 mmHg 52%
    14:00 +24°C° 0 mm 3 mps 718 mmHg 47%
    15:00 +21°C° 0 mm 2 mps 718 mmHg 51%
    16:00 +20°C° 0 mm 2 mps 717 mmHg 55%
    17:00 +20°C° 0 mm 1 mps 717 mmHg 59%
    18:00 +19°C° 0 mm 1 mps 717 mmHg 65%
    19:00 +18°C° 0 mm 1 mps 718 mmHg 71%
    20:00 +16°C° 0 mm 1 mps 718 mmHg 76%
    21:00 +15°C° 0 mm 1 mps 718 mmHg 77%
    22:00 +15°C° 0 mm 1 mps 719 mmHg 78%
    23:00 +14°C° 0 mm 1 mps 719 mmHg 79%

    12 June, Friday

    Time Temperature Precipitation Wind Pressure Humidity
    00:00 +14°C° 0 mm 1 mps 719 mmHg 79%
    01:00 +14°C° 0 mm 1 mps 719 mmHg 78%
    02:00 +14°C° 0 mm 1 mps 718 mmHg 78%
    03:00 +14°C° 0 mm 1 mps 718 mmHg 75%
    04:00 +13°C° 0 mm 1 mps 718 mmHg 73%
    05:00 +13°C° 0 mm 1 mps 717 mmHg 71%
    06:00 +13°C° 0 mm 1 mps 718 mmHg 70%
    07:00 +14°C° 0 mm 1 mps 718 mmHg 69%
    08:00 +14°C° 0 mm 1 mps 719 mmHg 68%
    09:00 +15°C° 0 mm 1 mps 719 mmHg 68%
    10:00 +17°C° 0 mm 2 mps 719 mmHg 67%
    11:00 +18°C° 0 mm 3 mps 719 mmHg 66%
    12:00 +19°C° 0 mm 3 mps 719 mmHg 66%
    13:00 +19°C° 0 mm 3 mps 719 mmHg 65%
    14:00 +19°C° 0 mm 2 mps 718 mmHg 64%
    15:00 +19°C° 0 mm 2 mps 719 mmHg 68%
    16:00 +18°C° 0 mm 2 mps 719 mmHg 72%
    17:00 +17°C° 0 mm 2 mps 719 mmHg 76%
    18:00 +17°C° 0 mm 3 mps 720 mmHg 76%
    19:00 +15°C° 0 mm 5 mps 721 mmHg 75%
    20:00 +15°C° 0 mm 6 mps 722 mmHg 74%
    21:00 +13°C° 0.2 mm 6 mps 722 mmHg 70%
    22:00 +11°C° 0.2 mm 6 mps 723 mmHg 66%
    23:00 +10°C° 0.2 mm 7 mps 724 mmHg 62%
    Show more